Location: Newark
(42.8481°N, 0.4872°E)
Time: 20:08:10
(UTC+00:00)

Transit 2A - Pass Details

Date: 03 November 2020
Orbit: 595 x 963 km, 66.7° (Epoch: 03 December)

Event Time Altitude Azimuth Distance (km) Brightness Sun altitude
Rises 21:35:28 0° 156° (SSE) 3,612 - -51.5°
Reaches altitude 10° 21:39:14 10° 134° (SE) 2,691 - -52.1°
Maximum altitude 21:42:31 15° 102° (ESE) 2,363 - -52.6°
Drops below altitude 10° 21:45:49 10° 71° (ENE) 2,688 - -53.1°
Sets 21:49:33 0° 49° (NE) 3,607 - -53.6°
